Theta_e
354 359 365 363 362 363 363 364 366 366 362 362 362 361 361 361 361 361 360 360 360 360 360 362 363 362 361 361 361 362 364 365 362 365 365 364 363 364 364 364 363 353 359
356 359 366 366 364 366 364 364 367 368 363 362 362 362 361 361 361 361 361 360 359 359 358 360 361 360 360 359 360 359 361 364 363 363 363 363 363 363 361 359 362 357 358
355 359 362 368 366 365 365 364 364 366 364 365 363 362 361 361 361 361 360 361 361 360 359 357 356 358 357 358 359 359 352 359 364 363 362 358 360 363 361 360 358 359 359
356 358 357 366 366 365 365 365 365 364 363 364 363 362 362 362 361 360 360 358 358 358 358 358 356 355 356 355 356 355 345 355 359 362 357 355 357 361 363 359 358 359 360
356 355 361 367 362 364 364 363 363 363 363 363 362 361 360 359 359 358 358 358 359 358 357 357 357 357 357 355 355 357 346 355 357 353 357 358 357 361 362 360 357 360 362
355 356 365 363 361 363 363 363 362 362 361 361 361 360 359 359 358 358 357 356 355 354 353 353 355 356 356 354 354 355 352 358 357 355 354 359 358 362 362 361 358 362 362
354 357 362 367 366 365 363 363 363 362 362 361 361 360 359 359 358 358 358 356 354 355 355 354 353 355 355 354 355 354 356 358 349 353 356 352 359 362 361 361 360 360 361
355 356 359 365 367 365 362 363 363 362 361 362 361 361 361 359 359 358 358 357 357 356 355 356 355 355 355 354 355 354 355 357 352 352 349 350 355 354 353 358 361 359 361
356 357 360 361 363 364 364 364 363 363 363 361 361 362 360 359 359 358 356 359 355 352 353 352 354 356 355 354 355 354 352 355 352 350 349 348 353 353 351 352 358 361 358
356 357 360 362 362 363 363 364 364 363 363 361 362 361 360 359 360 359 358 358 358 356 352 351 351 354 356 354 354 353 354 354 354 352 349 351 350 351 352 352 357 360 360
354 357 358 359 358 363 362 363 364 362 362 361 362 361 361 357 359 355 360 359 356 351 350 352 352 353 355 356 355 354 354 360 354 352 352 347 346 349 353 354 355 359 361
353 354 354 355 359 360 357 364 360 360 357 361 360 361 358 356 356 355 359 359 356 351 349 350 352 351 355 354 356 355 354 353 352 352 353 349 347 351 356 357 358 361 361
353 353 354 355 359 358 355 355 357 357 355 356 362 362 362 356 355 354 357 358 357 355 357 352 354 350 352 356 353 353 354 353 353 351 351 354 353 354 357 359 359 360 361
351 352 353 356 359 357 354 355 355 355 355 354 356 360 357 356 361 366 359 358 358 361 360 359 358 358 355 355 354 352 351 355 351 353 351 354 357 357 359 360 362 362 361
350 352 354 357 359 359 360 355 356 355 353 354 355 356 356 355 358 359 366 360 361 358 360 365 362 360 356 355 355 355 352 351 351 351 352 356 357 360 361 361 361 361 361
351 354 356 357 359 360 360 359 369 360 356 355 354 352 357 357 360 367 363 359 361 359 356 360 361 357 356 356 354 356 354 353 354 355 350 354 358 360 361 360 362 363 363
352 353 356 357 358 359 359 360 363 358 356 355 353 356 359 361 361 363 368 367 361 365 364 362 361 361 358 355 354 353 352 354 353 356 354 354 355 359 360 360 361 361 361
353 354 357 355 355 358 359 359 368 364 356 354 353 355 360 362 363 363 365 360 361 362 359 359 359 364 359 358 357 354 352 352 353 355 356 356 355 354 360 363 363 362 359
354 355 356 357 355 358 361 365 367 363 363 355 354 356 360 361 361 362 360 361 363 363 362 359 359 361 357 360 353 354 354 353 352 350 353 357 355 355 355 360 363 363 359
354 357 359 357 359 362 368 362 366 357 368 361 354 355 359 360 360 362 358 363 359 359 356 360 357 358 354 357 352 353 353 353 352 351 352 354 354 356 355 358 358 355 360
354 356 358 359 361 361 356 356 359 350 363 359 355 357 359 361 360 362 356 359 358 354 356 360 359 351 353 355 361 357 356 354 350 350 352 353 354 356 356 357 358 356 357
353 355 359 360 361 362 360 360 355 355 357 356 355 358 359 360 362 361 360 358 363 360 363 362 362 354 356 357 355 355 349 346 350 351 351 351 354 355 355 357 357 359 359
351 355 357 361 362 364 362 364 363 357 361 360 353 355 357 358 359 361 362 360 362 360 355 361 358 358 353 356 356 351 345 339 346 350 353 354 354 353 354 355 358 360 361
350 354 358 361 362 358 364 361 358 358 349 351 352 352 354 358 359 360 362 363 364 357 363 357 357 358 362 359 354 352 351 350 349 340 349 351 353 354 356 355 357 360 361
349 352 357 361 363 363 363 362 361 355 351 353 353 359 359 362 362 362 364 364 363 357 362 359 358 359 357 354 352 352 352 349 350 342 338 345 350 352 353 355 355 357 358
349 349 352 359 362 363 363 361 358 356 356 351 352 357 352 355 354 363 362 364 365 363 361 358 361 360 359 358 360 350 347 355 349 345 342 345 345 349 352 354 356 355 356
Wind_Speed
13 16 11 12 12 12 12 11 13 14 15 14 13 13 12 11 10 8 8 8 8 6 6 8 8 8 11 10 10 11 12 12 12 12 12 13 13 14 13 13 15 17 15
18 17 13 13 13 13 11 11 12 15 14 14 13 12 11 10 9 7 7 7 6 6 4 5 6 5 8 9 8 9 10 10 10 10 11 10 11 14 11 6 14 16 15
18 18 16 12 12 13 12 12 12 13 13 13 12 12 10 8 8 7 6 4 6 5 5 4 4 5 6 7 8 9 6 4 9 8 9 9 11 12 13 12 14 14 14
18 17 16 12 12 13 13 13 12 13 13 13 12 10 9 8 8 7 6 5 4 4 3 4 3 2 5 5 7 11 1 4 7 7 9 4 12 10 14 13 12 13 13
16 15 16 14 13 14 13 13 12 11 12 11 11 9 8 7 7 6 6 6 6 5 5 4 4 4 3 3 3 12 5 9 7 8 2 3 6 12 12 13 12 12 12
16 16 17 14 13 14 13 12 12 11 10 9 8 7 7 6 6 5 3 3 3 3 2 3 4 5 4 2 3 3 13 9 6 8 6 5 3 13 12 9 11 9 10
16 14 16 12 12 13 13 12 11 10 10 9 8 8 7 5 4 3 3 3 2 1 1 1 2 3 2 1 3 2 6 8 6 3 6 10 12 11 10 10 9 10 9
14 14 16 13 12 12 12 12 11 10 9 9 8 6 7 5 4 3 4 5 5 3 1 1 2 3 3 2 3 2 4 6 8 10 9 6 16 9 9 7 9 9 10
14 13 13 14 12 11 11 12 11 9 8 7 7 6 5 5 5 4 4 5 6 3 5 5 3 4 4 4 3 2 3 6 6 5 7 7 15 11 8 9 7 9 10
13 12 11 12 13 10 12 10 9 8 9 7 7 6 6 5 5 6 5 5 7 4 4 4 1 3 4 4 4 4 5 5 10 5 7 1 12 13 12 10 10 10 10
10 12 14 13 11 11 11 10 10 8 6 7 7 7 8 9 10 8 3 8 6 4 2 2 2 2 4 7 6 5 6 3 8 4 4 11 7 13 15 12 12 10 10
15 14 11 12 14 10 7 10 7 5 6 7 6 6 7 3 2 1 5 6 8 9 9 6 5 5 9 6 9 9 5 5 5 3 2 9 9 13 14 12 12 11 11
15 12 11 10 10 10 7 7 6 5 5 6 5 6 7 3 5 6 3 5 5 7 4 9 11 8 4 2 4 3 5 5 3 4 10 8 9 12 12 12 12 12 11
15 14 13 12 9 9 6 6 5 6 5 5 7 6 3 5 3 0 4 4 3 4 5 3 4 2 5 4 5 5 6 3 4 2 9 7 8 11 12 12 12 12 11
14 14 13 11 10 9 7 7 6 6 7 8 5 7 4 4 5 4 4 4 3 3 4 4 4 3 4 5 5 6 6 5 4 3 3 11 9 11 11 13 13 13 12
13 13 13 13 12 10 9 7 4 4 6 6 6 6 7 6 4 4 5 4 4 4 4 4 4 4 5 4 6 6 6 6 5 3 5 9 10 10 9 9 10 11 11
13 12 12 12 12 11 11 9 7 7 7 6 6 6 7 6 4 5 2 3 3 2 4 5 5 5 5 4 5 5 6 6 6 6 6 5 12 13 12 11 10 9 11
13 13 12 10 12 12 10 8 6 6 5 6 6 7 8 6 5 4 2 3 2 3 3 3 3 2 4 3 2 5 6 6 8 7 7 5 5 9 13 14 12 11 11
15 14 14 13 12 12 12 9 7 7 5 7 6 6 8 7 6 6 3 2 3 2 1 3 1 4 4 5 5 5 5 6 8 9 8 7 6 5 5 17 13 10 11
15 14 13 12 12 11 7 9 4 6 5 6 7 7 6 6 6 5 3 1 4 2 2 2 3 3 5 3 4 2 4 6 7 7 7 7 8 7 7 5 9 11 14
15 15 15 14 13 10 9 9 5 8 6 7 7 7 7 7 7 5 5 3 3 4 3 3 3 2 5 4 3 3 2 7 9 8 7 7 8 8 8 6 6 6 10
16 16 15 16 15 13 9 8 7 8 8 9 7 8 8 7 6 6 5 4 2 2 3 4 3 3 5 3 2 3 4 5 7 9 8 8 8 8 8 9 9 7 7
16 16 15 15 14 12 12 7 3 5 6 5 7 8 8 8 8 7 6 6 3 5 3 2 3 4 4 3 5 4 3 2 1 8 9 8 9 8 8 7 7 8 8
15 14 14 15 14 13 14 10 12 8 9 8 8 9 8 9 9 8 8 6 6 5 3 3 4 6 2 4 3 4 5 6 3 3 5 7 8 9 9 7 7 9 9
11 14 15 15 14 14 14 14 9 9 7 5 7 10 9 7 7 9 8 7 6 7 3 4 4 4 5 6 3 2 3 5 5 6 4 5 5 8 8 8 8 7 10
14 8 13 15 16 16 15 14 12 12 9 8 9 7 7 5 6 9 9 7 6 5 6 6 5 5 5 4 6 1 7 1 4 5 6 6 4 4 7 8 8 7 7
Wind_Direction
161 137 163 151 143 133 130 134 138 141 146 142 136 134 133 131 119 121 132 143 148 138 95 104 111 105 92 85 93 98 96 99 108 109 112 109 115 109 104 119 131 108 111
147 145 161 151 149 136 131 125 134 144 150 151 143 143 144 143 132 129 139 142 165 164 134 110 132 128 107 107 100 98 102 108 119 123 122 115 118 117 118 112 82 109 114
143 140 160 155 147 137 136 130 131 142 144 150 149 152 161 161 155 161 161 157 189 189 179 155 167 159 128 133 121 107 75 110 130 141 159 158 119 125 121 103 113 119 117
143 147 150 149 139 140 144 137 134 134 142 145 148 155 158 160 159 173 179 189 237 263 264 246 220 185 155 157 154 134 3 198 149 149 208 140 133 135 127 129 128 127 129
146 146 130 147 152 147 150 140 138 140 144 149 152 159 157 162 171 184 188 212 237 251 263 281 273 265 252 202 210 162 170 225 163 190 160 192 154 129 133 134 141 143 168
148 161 129 155 160 156 155 149 146 148 149 151 155 161 167 176 181 191 183 205 236 264 253 238 236 236 240 225 202 190 176 202 166 171 138 200 198 138 144 156 139 127 124
154 149 150 163 166 160 158 159 154 156 159 159 163 173 186 188 189 187 161 143 125 145 250 261 213 227 225 183 174 189 161 172 153 180 184 182 124 147 145 149 151 156 142
152 153 150 162 165 162 168 167 165 167 173 171 175 185 188 185 192 172 146 148 140 152 183 168 199 221 168 143 166 183 201 203 207 166 211 189 115 158 153 159 166 167 167
167 153 156 167 168 170 175 177 177 177 182 174 183 192 198 189 191 181 170 189 150 116 106 64 194 197 160 165 173 198 176 194 238 212 207 203 141 184 196 189 189 181 182
163 152 168 169 175 176 176 188 181 185 192 180 195 193 193 194 210 194 195 190 131 112 104 115 102 202 185 191 205 211 225 227 246 215 220 143 145 186 204 205 200 200 189
175 174 173 174 175 182 172 164 181 189 190 199 193 196 195 226 174 151 164 134 167 172 138 114 65 238 197 194 190 203 220 209 237 219 229 107 165 197 201 197 203 210 200
179 189 181 176 165 181 181 153 192 166 182 211 189 187 232 224 256 353 150 194 206 212 228 229 237 249 226 193 163 188 217 216 208 175 99 125 176 190 191 202 206 205 208
178 186 185 184 162 184 178 185 174 163 206 178 191 209 253 203 207 189 242 203 196 217 220 214 197 216 225 247 206 244 159 184 175 199 98 146 184 198 201 201 206 205 207
181 186 189 178 178 196 175 200 192 166 198 222 173 220 193 225 219 90 252 254 155 222 229 253 237 230 243 197 234 259 196 228 186 178 124 166 188 196 199 201 206 203 207
184 186 185 185 181 190 200 196 206 199 184 212 170 194 224 230 228 275 265 260 234 252 213 189 215 218 210 222 199 208 235 185 185 182 161 163 196 204 208 199 199 197 199
192 186 185 191 182 192 204 205 191 225 202 205 192 189 215 249 252 245 249 211 178 204 248 265 204 229 222 231 205 205 214 200 188 229 192 158 185 204 207 196 199 201 204
194 188 197 195 187 194 203 203 212 194 200 203 210 198 217 231 220 286 235 301 231 254 256 222 209 218 250 208 214 184 201 195 210 200 217 199 163 193 206 210 212 210 212
197 195 199 199 194 189 199 206 194 240 206 205 201 195 208 224 249 239 164 266 349 229 280 248 209 157 227 228 207 221 198 198 199 195 219 217 216 181 189 201 206 209 214
196 191 198 196 201 190 196 204 201 217 218 214 202 210 188 214 222 263 266 34 247 225 275 312 241 239 181 218 205 211 220 218 199 198 207 213 220 235 221 173 193 206 218
195 200 202 195 203 195 186 208 191 228 199 241 204 214 200 216 221 237 249 307 253 220 255 288 319 309 293 287 252 203 243 203 206 210 206 214 214 223 234 210 185 200 203
203 200 200 199 193 197 193 195 180 209 200 193 215 214 213 232 205 218 253 201 231 248 271 256 233 207 276 245 299 219 219 240 207 213 211 219 214 214 224 225 235 252 185
202 206 205 208 193 201 190 207 205 196 213 200 201 191 221 212 208 211 243 231 222 236 236 244 237 248 247 227 236 238 206 209 214 219 218 223 219 219 221 221 241 239 266
201 201 202 209 201 197 217 180 192 191 205 186 209 202 207 216 220 226 225 250 229 265 248 238 240 265 305 251 270 278 284 324 183 182 213 226 217 222 230 219 223 226 232
202 198 201 204 201 197 200 191 188 211 202 195 195 206 205 208 217 218 210 221 230 258 324 240 228 298 287 293 187 232 295 344 297 204 201 207 205 224 230 248 223 217 227
208 196 193 193 194 198 192 199 188 200 201 213 213 193 215 191 227 204 200 211 227 234 222 277 272 255 265 279 275 223 235 242 223 285 282 172 201 219 224 222 245 220 212
184 195 195 189 192 191 199 193 191 203 221 193 204 173 200 193 216 215 204 219 231 252 241 235 258 259 276 298 318 136 272 272 270 239 248 263 282 229 216 209 232 233 232